Starlink 11637

operational
NORAD ID: 63190 Int'l Des: 2025-048 Owner: SPXS Country: US Constellation: starlink
LEOCIRCULAR

Über Starlink 11637

Beschreibung wird geladen...

Live-Position

3D-Globus wird geladen...

Nächste Überflüge

Höhenverlauf

Altitude vs Time

uPlot chart will show altitude changes over time

Zweizeiliger Elementsatz

1 63190U 25048H 25303.57915319 .00342927 00000-0 25555-2 0 9992
2 63190 43.0012 24.5632 0002192 333.7507 26.3250 15.70949307 38054
Epoch: 30. Okt. 2025 • Age: 18 hours

Aktueller Status

Höhe 367.5 km
Geschwindigkeit 7.69 km/s
Subsatellitenpunkt -43.15°S, 131.46°E
Startdatum 13. März 2025
Alter 0.6 years
Typ internet

Technische Details

Klassifizierung Payload
Masse 960.00 kg
Trockenmasse 910.00 kg
Gesamtmasse 960.00 kg
Länge 0.30 m
Durchmesser 4.10 m
Spannweite 29.00 m
Form Box + pan
Hersteller SPXS
Bus-Typ Starlink V2MD
Phasenstatus In Orbit
Besitzer/Staat SPXS/US

Große Konstellationen

Loading constellations...